VK3BKO-13 Weather Reports


time (UTC)temp
F
wind
direction
speed
knots
gust
knots
rain 1hr
in
rain 24hr
in
rain mn
in
humidity
%
barometer
mb
20260510224703 49 334 0.9 1.7 0.00 0.00 0.00 96 1033.2
20260510223204 49 15 1.7 1.7 0.00 0.00 0.00 96 1033.6
20260510221704 49 354 0.0 0.9 0.00 0.00 0.00 96 1033.6
20260510220203 49 335 0.0 0.9 0.00 0.00 0.00 96 1033.2
20260510214703 48 343 0.0 0.0 0.00 0.00 0.00 96 1033.2
20260510213203 48 329 0.0 0.9 0.00 0.00 0.00 96 1032.9
20260510211704 48 330 0.0 0.0 0.00 0.00 0.00 96 1032.9
20260510210203 47 5 0.9 0.9 0.00 0.00 0.00 96 1032.5
20260510204703 46 22 0.9 0.9 0.00 0.00 0.00 95 1032.5
20260510203204 46 336 0.0 0.0 0.00 0.00 0.00 95 1032.5
20260510201704 45 324 0.0 0.0 0.00 0.00 0.00 95 1032.5
20260510200203 44 335 0.9 0.9 0.00 0.00 0.00 95 1032.2
20260510194703 44 322 0.0 0.0 0.00 0.00 0.00 95 1032.2
20260510193203 42 329 0.0 0.0 0.00 0.00 0.00 96 1032.2
20260510191703 42 323 0.0 0.0 0.00 0.00 0.00 95 1031.9
20260510190203 41 323 0.0 0.0 0.00 0.00 0.00 95 1031.9
20260510184703 41 322 0.0 0.0 0.00 0.00 0.00 95 1031.5
20260510183204 41 326 0.0 0.0 0.00 0.00 0.00 95 1031.5
20260510181704 40 323 0.0 0.0 0.00 0.00 0.00 95 1031.2
20260510180204 40 322 0.0 0.0 0.00 0.00 0.00 95 1031.2
20260510174704 40 324 0.0 0.0 0.00 0.00 0.00 95 1031.2
20260510173203 40 324 0.0 0.0 0.00 0.00 0.00 95 1030.8
20260510171703 41 321 0.0 0.0 0.00 0.00 0.00 95 1030.8
20260510170204 40 321 0.0 0.0 0.00 0.00 0.00 94 1031.2
20260510164704 41 321 0.0 0.0 0.00 0.00 0.00 94 1031.2
20260510163204 41 321 0.0 0.0 0.00 0.00 0.00 94 1031.2
20260510161704 41 321 0.0 0.0 0.00 0.00 0.00 94 1031.2
20260510160204 42 321 0.0 0.0 0.00 0.00 0.00 94 1031.2
20260510154704 41 325 0.0 0.0 0.00 0.00 0.00 94 1031.2
20260510153204 42 325 0.0 0.0 0.00 0.00 0.00 94 1031.5
20260510151704 42 323 0.0 0.0 0.00 0.00 0.00 94 1031.2
20260510150204 42 323 0.0 0.0 0.00 0.00 0.00 94 1031.2
20260510144704 43 323 0.0 0.0 0.00 0.00 0.00 94 1031.5
20260510143204 44 325 0.0 0.0 0.00 0.00 0.00 94 1031.2
20260510141703 43 325 0.0 0.0 0.00 0.00 0.00 94 1031.5
20260510140203 44 324 0.0 0.0 0.00 0.00 0.00 93 1031.5
20260510134704 45 324 0.0 0.0 0.00 0.00 0.00 93 1031.5
20260510133204 44 322 0.0 0.0 0.00 0.00 0.00 93 1031.5
20260510131704 45 323 0.0 0.0 0.00 0.00 0.00 93 1031.5
20260510130204 46 326 0.0 0.0 0.00 0.00 0.00 93 1031.5
20260510124704 45 321 0.0 0.0 0.00 0.00 0.00 92 1031.9
20260510123204 46 323 0.0 0.0 0.00 0.00 0.00 92 1031.9
20260510121704 46 323 0.0 0.0 0.00 0.00 0.00 92 1031.5
20260510120204 47 325 0.0 0.0 0.00 0.00 0.00 92 1031.9
20260510114704 47 325 0.0 0.0 0.00 0.00 0.00 91 1031.5
20260510113204 47 325 0.0 0.0 0.00 0.00 0.00 90 1031.5
20260510111704 48 323 0.0 0.0 0.00 0.00 0.00 90 1031.5
20260510110204 49 328 0.0 0.0 0.00 0.00 0.00 90 1031.2
20260510104704 49 328 0.0 0.0 0.00 0.00 0.00 89 1031.2
20260510103204 50 326 0.0 0.0 0.00 0.00 0.00 88 1031.2
20260510101704 50 329 0.0 0.0 0.00 0.00 0.00 88 1031.2
20260510100204 51 328 0.0 0.0 0.00 0.00 0.00 87 1031.2
20260510094704 52 333 0.0 0.0 0.00 0.00 0.00 86 1031.2
20260510093204 52 321 0.0 0.0 0.00 0.00 0.00 85 1030.8
20260510091703 53 337 0.0 0.0 0.00 0.00 0.00 84 1030.8
20260510090203 53 325 0.0 0.0 0.00 0.00 0.00 82 1030.8
20260510084704 55 327 0.0 0.0 0.00 0.00 0.00 80 1030.8
20260510083204 57 333 0.0 0.0 0.00 0.00 0.00 77 1030.5
20260510081704 59 342 0.0 0.0 0.00 0.00 0.00 75 1030.5
20260510080204 59 325 0.0 0.0 0.00 0.00 0.00 75 1030.5
20260510074704 59 310 0.0 0.9 0.00 0.00 0.00 75 1029.8
20260510073204 59 303 0.0 0.0 0.00 0.00 0.00 74 1029.8
20260510071703 60 301 0.0 0.0 0.00 0.00 0.00 72 1029.8
20260510070204 61 319 0.0 0.0 0.00 0.00 0.00 71 1029.8
20260510064704 61 310 0.0 0.9 0.00 0.00 0.00 69 1029.8
20260510063204 64 292 0.9 0.9 0.00 0.00 0.00 64 1029.5
20260510061705 64 30 0.9 0.9 0.00 0.00 0.00 60 1029.5
20260510060203 64 311 0.0 0.0 0.00 0.00 0.00 60 1029.5
20260510054704 62 312 0.0 0.0 0.00 0.00 0.00 63 1029.8
20260510053204 62 280 0.9 0.9 0.00 0.00 0.00 62 1029.5
20260510051704 64 61 3.5 3.5 0.00 0.00 0.00 59 1029.5
20260510050204 63 205 0.9 1.7 0.00 0.00 0.00 60 1029.5
20260510044704 64 289 0.9 1.7 0.00 0.00 0.00 58 1029.2
20260510043204 63 200 1.7 2.6 0.00 0.00 0.00 60 1029.5
20260510041703 64 174 2.6 2.6 0.00 0.00 0.00 57 1029.5
20260510040203 64 221 0.9 1.7 0.00 0.00 0.00 57 1029.8
20260510034704 64 306 0.9 0.9 0.00 0.00 0.00 58 1029.8
20260510033204 64 150 1.7 3.5 0.00 0.00 0.00 58 1029.8
20260510031704 63 242 0.9 1.7 0.00 0.00 0.00 61 1029.8
20260510030204 62 290 0.9 0.9 0.00 0.00 0.00 60 1029.8
20260510024704 63 297 0.9 1.7 0.00 0.00 0.00 60 1029.8
20260510023204 62 338 0.0 0.9 0.00 0.00 0.00 62 1030.2
20260510021704 61 324 0.0 0.9 0.00 0.00 0.00 64 1030.5
20260510020203 62 190 1.7 2.6 0.00 0.00 0.00 63 1030.5
20260510014704 61 322 0.0 0.0 0.00 0.00 0.00 62 1030.8
20260510013204 60 14 1.7 1.7 0.00 0.00 0.00 64 1031.2
20260510011704 60 323 0.0 0.0 0.00 0.00 0.00 65 1031.2
20260510010204 60 306 0.0 0.9 0.00 0.00 0.00 66 1031.2
20260510004703 60 285 0.0 0.9 0.00 0.00 0.00 66 1031.2
20260510003204 59 321 0.0 0.0 0.00 0.00 0.00 68 1031.2
20260510001704 60 252 1.7 1.7 0.00 0.00 0.00 70 1031.2
20260510000204 60 314 0.0 0.0 0.00 0.00 0.00 71 1031.2
20260509234704 59 300 0.0 0.9 0.00 0.00 0.00 77 1031.2
20260509233204 58 317 0.0 0.0 0.00 0.00 0.00 81 1030.8
20260509231704 58 327 0.0 0.0 0.00 0.00 0.00 84 1030.8
20260509230204 57 316 0.0 0.0 0.00 0.00 0.00 87 1030.8